Other Public Products
Issued by NWS Grand Forks, ND

Home | Current Version | Previous Version | Text Only | Print | Product List | Glossary Off
Versions: 1 2 3 4 5 6 7 8 9 10 11 12 13 14 15 16 17 18 19 20 21 22 23 24 25 26 27 28 29 30 31 32 33 34 35 36 37 38 39 40 41 42 43 44 45 46 47 48 49 50

000
FPUS83 KFGF 301710
OPUFGF
PRAIRIE TO PINES WEATHER ROUNDUP
NATIONAL WEATHER SERVICE EASTERN NORTH DAKOTA/GRAND FORKS ND
1100 AM CST FRI JAN 30 2015

 **SATELLITE DATA USED TO AUGMENT SKY COVER AT AUTOMATED STATIONS**
 *****  WEATHER ACROSS EASTERN NORTH DAKOTA  *****

CITY           SKY/WX    TMP DP  RH WIND       PRES   REMARKS
GRAND FORKS    CLOUDY    17  11  77 S21G28    30.25F WCI   0
GRAND FORKS AF CLOUDY    18  11  75 S21       30.24F WCI   1
GRAND CITY NWS   N/A     18 N/A N/A S18         N/A  WCI   2
BUXTON         NOT AVBL
DEVILS LAKE    SUNNY     25  19  80 S15       30.15F WCI  12
FARGO          CLOUDY    20  13  74 S17       30.32F WCI   5
WAHPETON ARPT  CLOUDY    19  14  79 S17       30.36S WCI   4
$$

 *****  WEATHER ACROSS CENTRAL AND WESTERN NORTH DAKOTA  *****

CITY           SKY/WX    TMP DP  RH WIND       PRES   REMARKS
JAMESTOWN      SUNNY     26  19  74 S16       30.17F WCI  14
BISMARCK       SUNNY     30  23  75 SW7       30.19F WCI  23
MINOT          SUNNY     32  22  66 W13       30.13R WCI  22
MINOT AFB      SUNNY     31  28  90 NW13      30.12S WCI  21
GARRISON         N/A     31  25  78 W7        30.14S WCI  24
WILLISTON      SUNNY     32  27  81 VRB5      30.20R
DICKINSON      SUNNY     39  26  59 NW12      30.15R
HETTINGER      SUNNY     38  26  62 NW10      30.18S
$$

 *****  OTHER OBSERVATIONS NORTHEAST NORTH DAKOTA  *****

CITY           SKY/WX    TMP DP  RH WIND       PRES   REMARKS
WALHALLA         N/A     16  16 100 SE7       30.21F WCI   6
LANGDON        NOT AVBL
CAVALIER       CLOUDY    14  10  85 S10       30.24R WCI   1
GRAFTON        NOT AVBL
CANDO          FAIR      25  19  80 SW10      30.14F WCI  15
FORT TOTTEN      N/A     25  20  80 S10       29.95S WCI  15
ROLLA          FAIR      18  18 100 SW10      30.11F WCI   6
RUGBY          FAIR      23  19  86 SW9       30.13F WCI  13
 ***** THE ABOVE OBSERVATIONS ARE NON NWS ARE NOT QUALITY
        CONTROLLED AND MAY MIS-REPORT RAIN FOR SNOW...
$$

 *****  OTHER OBSERVATIONS SOUTHEAST NORTH DAKOTA *****

CITY           SKY/WX    TMP DP  RH WIND       PRES   REMARKS
COOPERSTOWN    NOT AVBL
VALLEY CITY    FAIR      25  23  93 S16G23    30.22F WCI  12
OAKES            N/A     27  23  86 S18G24    30.24F WCI  13
GWINNER        SUNNY     28  25  86 S17       30.27F WCI  16
SHEYENNE NWR     N/A     22  14  72 S13       29.95S WCI  10
BUFFALO        NOT AVBL
WYNDMERE         N/A     23  18  80 S13         N/A  WCI  11
 ***** THE ABOVE OBSERVATIONS ARE NON NWS ARE NOT QUALITY
       CONTROLLED AND MAY MIS-REPORT RAIN FOR SNOW...
$$

  *****  WEATHER ACROSS NORTHERN MINNESOTA  *****

CITY           SKY/WX    TMP DP  RH WIND       PRES   REMARKS
FLAG ISLAND    LGT SNOW   3   0  85 S16       30.30F WCI -16
WARROAD        LGT SNOW   7   1  78 S8        30.30F WCI  -6
ROSEAU         PTSUNNY   10   3  72 S9        30.29F WCI  -2
HALLOCK        CLOUDY    14  10  85 S17       30.25F WCI  -3
THF RVR FALLS  CLOUDY    14  10  85 S13       30.28F WCI   0
HALSTAD          N/A     18  12  77 S21         N/A  WCI   2
FOSSTON        PTSUNNY   10   9  92 S20       30.29F WCI  -8
BAUDETTE       LGT SNOW   4  -1  80 SE5       30.32F WCI  -5
WASKISH        CLOUDY     9   3  78 SE3       30.33F
CROOKSTON      CLOUDY    16  12  86 S17       30.30F WCI   0
$$
  *****  WEATHER ACROSS CENTRAL AND WEST MINNESOTA  *****

CITY           SKY/WX    TMP DP  RH WIND       PRES   REMARKS
BEMIDJI        CLOUDY    10   4  78 S8        30.32F WCI  -3
PARK RAPIDS    CLOUDY    12   5  73 S8        30.34F WCI   0
WADENA         MOSUNNY   12   9  85 S9        30.37F WCI   0
DETROIT LAKES  MOSUNNY   16  12  86 S13       30.33F WCI   2
MOORHEAD       PTSUNNY   19  18  93 S20       30.33F WCI   4
FERGUS FALLS   CLOUDY    16  12  86 S16       30.40F WCI   0
ELBOW LAKE     CLOUDY    16  13  89 S15G21    30.37F WCI   1
MORRIS MN      CLOUDY    19  16  86 S16       30.39F WCI   5
STAPLES        PTSUNNY   12   7  79 S9        30.38F WCI   0
WHEATON        MOSUNNY   19  18  93 S15       30.38F WCI   5
$$
  *****  WEATHER ELSEWHERE ACROSS MINNESOTA  *****

CITY           SKY/WX    TMP DP  RH WIND       PRES   REMARKS
DULUTH         PTSUNNY    7   1  76 SW3       30.40F
INTRNTL FALLS  CLOUDY     2  -2  83 SE3       30.37S
ELY            CLOUDY     3  -2  78 S5        30.37F WCI  -6
CLOQUET        PTSUNNY    9   0  66 S5        30.41F WCI   0
BRAINERD       CLOUDY    12   5  73 S13       30.41F WCI  -3
HIBBING        CLOUDY     6  -1  73 S6        30.38F WCI  -4
ALEXANDRIA     CLOUDY    14  10  84 S14       30.39F WCI  -1
SAINT CLOUD    MOSUNNY   16   8  71 S9        30.45F WCI   4
MINNEAPOLIS    PTSUNNY   16   7  67 S6        30.51F WCI   7
$$

  *****  WEATHER ACROSS SOUTH DAKOTA  *****

CITY           SKY/WX    TMP DP  RH WIND       PRES   REMARKS
SIOUX FALLS    MOSUNNY   27  21  78 S16       30.40F WCI  15
BROOKINGS      NOT AVBL
WATERTOWN      SUNNY     27  20  75 S15       30.30F WCI  15
HURON          SUNNY     29  23  78 S17G23    30.29F WCI  17
SISSETON         N/A     26  20  77 S17       30.31F WCI  13
ABERDEEN       SUNNY     29  23  78 S18       30.28S WCI  16
MITCHELL       SUNNY     29  24  82 S17       30.34F WCI  17
PIERRE         SUNNY     32  25  75 S10       30.20F WCI  24
MOBRIDGE       SUNNY     28  22  78 S9        30.18F WCI  19
RAPID CITY     PTSUNNY   38  25  59 NW7       30.18R
$$

  *****  SOME WEATHER IN NEARBY STATES *****

CITY           SKY/WX    TMP DP  RH WIND       PRES   REMARKS
GLASGOW MT     SUNNY     25  22  88 W6        30.24R WCI  18
GREAT FALLS MT SUNNY     39  19  44 SW10      30.22R
CHEYENNE WY    CLOUDY    44  24  45 N13       30.17S
SCOTTSBLUFF NE PTSUNNY   34  25  69 CALM      30.20F
OMAHA NE       MOSUNNY   27  18  69 S8        30.53F WCI  19
DES MOINES IA  MOSUNNY   24  13  62 SW3       30.56S
DAVENPORT IA   SUNNY     23  12  62 E6        30.54F WCI  16
CHICAGO IL     MOSUNNY   26   7  44 VRB3      30.52S
EAU CLAIRE WI  CLOUDY    11   3  70 W6        30.52S WCI   1
LA CROSSE WI   PTSUNNY   17   5  59 CALM      30.55F
$$

  *****  SOME NATIONAL WEATHER *****

CITY           SKY/WX    TMP DP  RH WIND       PRES   REMARKS
LA GUARDIA NY  PTSUNNY   36  26  67 NW21G30   29.84F
RALEIGH NC     PTSUNNY   45  18  34 NW13G22   30.11S
ATLANTA GA     MOSUNNY   46  24  42 NW20G31   30.32S
NEW ORLEANS LA PTSUNNY   52  38  58 N14       30.41S
OKLAHOMA CITY  CLOUDY    41  25  53 E7        30.51F
ALBUQUERQUE NM LGT SNOW  34  30  85 E17       30.26F FOG     WCI  23
SALT LAKE CITY CLOUDY    39  36  89 NW3       30.13S
LOS ANGELES CA CLOUDY    61  54  77 CALM      29.92S
BOISE ID       FOG       30  30 100 CALM      30.29R VSB<1/4
SEATTLE WA     FOG       36  35  96 CALM      30.32S VSB 3/4
$$

*** WEATHER ACROSS MANITOBA...SASKATCHEWAN AND ONTARIO ***
                ***ONTARIO***

CITY           SKY/WX    TMP DP  RH WIND       PRES   REMARKS
GERALDTON      MOSUNNY   -6 -13  71 W7        30.36F WCI -20
THUNDER BAY    CLOUDY     3  -6  66 CALM      30.48F
SIOUX LOOKOUT  PTSUNNY   -4  -9  77 SE6       30.33F WCI -16
TORONTO        MOSUNNY   10   1  67 N31G38    30.22R WCI -12
BIG TROUT LK   CLOUDY    -9 -17  70 SW6       30.21F WCI -23
PICKLE LAKE    PTSUNNY   -8 -15  71 SW6       30.27F WCI -21
DRYDEN         CLOUDY    -2  -9  71 S7        30.31F WCI -16
KENORA         LGT SNOW   0  -6  78 S10       30.28F WCI -17
$$
                *** MANITOBA***

CITY           SKY/WX    TMP DP  RH WIND       PRES   REMARKS
BRANDON        MOSUNNY   12   9  85 N2        30.14F
DAUPHIN        FLURRIES  18  14  86 W8        30.17R WCI   7
ISLAND LAKE    LGT SNOW  -4  -9  77 SE5       30.20F WCI -15
PILOT MOUND      N/A     19  18  93 S12         N/A  WCI   7
THE PAS        FLURRIES   3  -2  78 N9        30.23R WCI -11
THOMPSON       MOSUNNY   -6 -13  71 W6        30.16F WCI -18
WINNIPEG       LGT SNOW  10   5  79 S21       30.24F DRFTSNOWWCI  -9
LYNN LAKE      FLURRIES -11 -17  77 NW15G23   30.20R WCI -34
GILLAM         MOSUNNY  -13 -20  70 W10       30.14F WCI -32
$$
                ***SASKATCHEWAN***

CITY           SKY/WX    TMP DP  RH WIND       PRES   REMARKS
ESTEVAN        FOG       21  19  93 NW20      30.18  VSB 1/4 WCI   6
KINDERSLEY     PTSUNNY   18  16  93 NW2       30.24R
LLOYDMINSTER   CLOUDY    19  19 100 N10       30.24R FOG     WCI   8
PRINCE ALBERT  FLURRIES  14  10  85 NW7       30.28R WCI   4
REGINA         CLOUDY    19  18  93 NW12      30.20R WCI   7
YORKTON        CLOUDY    16  14  93 NW12      30.14S WCI   3


USA.gov is the U.S. government's official web portal to all federal, state and local government web resources and services.